QPF
0.00 0.00 0.00 0.00 0.00 0.00 0.00 0.00 0.00 0.00 0.00 0.00 0.00 0.00 0.00 0.00 0.00 0.00 0.00 0.00 0.00 0.00 0.00 0.00 0.00 0.01 0.01 0.01 0.01 0.00 0.00 0.00 0.00 0.00 0.00 0.00 0.00 0.00 0.00 0.00 0.00 0.00 0.00
0.00 0.00 0.00 0.00 0.00 0.00 0.00 0.00 0.00 0.00 0.00 0.00 0.00 0.00 0.00 0.00 0.00 0.00 0.00 0.00 0.00 0.00 0.00 0.00 0.00 0.00 0.00 0.01 0.00 0.01 0.01 0.01 0.00 0.00 0.00 0.00 0.00 0.00 0.00 0.00 0.00 0.00 0.00
0.00 0.00 0.00 0.00 0.00 0.00 0.00 0.00 0.00 0.00 0.00 0.00 0.00 0.00 0.00 0.00 0.00 0.00 0.00 0.00 0.00 0.00 0.00 0.00 0.00 0.00 0.00 0.00 0.00 0.00 0.00 0.02 0.01 0.00 0.00 0.00 0.00 0.00 0.00 0.00 0.00 0.00 0.00
0.00 0.00 0.00 0.00 0.00 0.00 0.00 0.00 0.00 0.00 0.00 0.00 0.00 0.00 0.00 0.00 0.00 0.00 0.00 0.00 0.00 0.00 0.00 0.00 0.00 0.00 0.00 0.00 0.00 0.00 0.00 0.00 0.01 0.00 0.00 0.00 0.00 0.00 0.00 0.00 0.00 0.00 0.00
0.00 0.00 0.00 0.00 0.00 0.03 0.16 0.17 0.07 0.02 0.01 0.00 0.00 0.00 0.00 0.00 0.00 0.00 0.00 0.00 0.00 0.00 0.00 0.00 0.00 0.00 0.00 0.00 0.00 0.00 0.00 0.00 0.00 0.00 0.00 0.00 0.00 0.00 0.00 0.00 0.00 0.00 0.00
0.00 0.00 0.00 0.00 0.00 0.15 0.27 0.22 0.14 0.04 0.01 0.00 0.00 0.00 0.00 0.00 0.00 0.00 0.00 0.00 0.00 0.00 0.00 0.00 0.00 0.00 0.00 0.00 0.00 0.00 0.00 0.00 0.01 0.02 0.00 0.00 0.00 0.00 0.00 0.00 0.00 0.00 0.00
0.00 0.00 0.00 0.00 0.01 0.11 0.17 0.21 0.15 0.08 0.01 0.01 0.00 0.00 0.00 0.00 0.00 0.00 0.00 0.00 0.00 0.00 0.00 0.00 0.00 0.00 0.00 0.00 0.00 0.00 0.00 0.00 0.00 0.00 0.00 0.00 0.00 0.00 0.00 0.00 0.00 0.00 0.00
0.00 0.00 0.00 0.00 0.01 0.05 0.18 0.21 0.15 0.07 0.02 0.01 0.00 0.00 0.00 0.00 0.00 0.00 0.01 0.00 0.00 0.00 0.00 0.00 0.00 0.00 0.00 0.00 0.00 0.00 0.00 0.00 0.00 0.00 0.00 0.00 0.00 0.00 0.00 0.00 0.00 0.00 0.00
0.00 0.00 0.00 0.00 0.00 0.04 0.17 0.16 0.08 0.03 0.01 0.00 0.00 0.00 0.00 0.00 0.01 0.05 0.05 0.01 0.00 0.01 0.00 0.00 0.00 0.00 0.00 0.00 0.00 0.00 0.00 0.00 0.00 0.00 0.00 0.00 0.00 0.00 0.00 0.00 0.00 0.00 0.00
0.00 0.00 0.00 0.00 0.00 0.05 0.13 0.15 0.05 0.01 0.00 0.01 0.02 0.00 0.00 0.00 0.03 0.05 0.07 0.06 0.01 0.00 0.00 0.00 0.00 0.00 0.00 0.00 0.00 0.00 0.00 0.00 0.00 0.00 0.00 0.00 0.00 0.00 0.00 0.00 0.00 0.00 0.00
0.00 0.00 0.00 0.00 0.01 0.03 0.09 0.10 0.05 0.02 0.03 0.04 0.03 0.00 0.00 0.00 0.00 0.02 0.05 0.03 0.01 0.00 0.00 0.00 0.00 0.00 0.00 0.00 0.00 0.00 0.00 0.00 0.00 0.00 0.00 0.00 0.00 0.00 0.00 0.00 0.00 0.00 0.00
0.00 0.00 0.00 0.01 0.02 0.07 0.08 0.10 0.06 0.04 0.04 0.03 0.00 0.00 0.00 0.00 0.01 0.03 0.02 0.01 0.00 0.00 0.00 0.00 0.00 0.00 0.00 0.00 0.00 0.00 0.00 0.00 0.00 0.00 0.00 0.00 0.00 0.00 0.00 0.00 0.00 0.00 0.00
0.00 0.00 0.00 0.00 0.01 0.03 0.02 0.03 0.03 0.01 0.00 0.00 0.00 0.00 0.00 0.00 0.00 0.00 0.00 0.00 0.00 0.00 0.00 0.00 0.00 0.00 0.00 0.00 0.00 0.00 0.00 0.00 0.00 0.00 0.00 0.00 0.00 0.00 0.00 0.00 0.00 0.00 0.00
0.00 0.00 0.00 0.00 0.01 0.01 0.02 0.03 0.04 0.02 0.00 0.00 0.01 0.01 0.02 0.01 0.00 0.00 0.00 0.00 0.00 0.00 0.00 0.00 0.00 0.00 0.00 0.00 0.00 0.00 0.00 0.00 0.00 0.00 0.00 0.00 0.00 0.00 0.00 0.00 0.00 0.00 0.00
0.00 0.00 0.00 0.00 0.00 0.02 0.02 0.01 0.01 0.01 0.01 0.00 0.01 0.01 0.02 0.01 0.01 0.00 0.00 0.00 0.00 0.00 0.00 0.00 0.00 0.00 0.00 0.00 0.00 0.00 0.00 0.00 0.00 0.00 0.00 0.00 0.00 0.00 0.00 0.00 0.00 0.00 0.00
0.00 0.00 0.00 0.00 0.00 0.00 0.00 0.00 0.00 0.00 0.00 0.00 0.00 0.00 0.00 0.00 0.00 0.00 0.00 0.00 0.00 0.00 0.00 0.00 0.00 0.00 0.00 0.00 0.00 0.00 0.00 0.00 0.00 0.00 0.00 0.00 0.00 0.00 0.00 0.00 0.00 0.00 0.00
0.00 0.00 0.00 0.00 0.00 0.00 0.00 0.00 0.00 0.00 0.00 0.00 0.00 0.00 0.00 0.00 0.00 0.00 0.00 0.00 0.00 0.00 0.00 0.00 0.00 0.00 0.00 0.00 0.00 0.00 0.00 0.00 0.00 0.00 0.00 0.00 0.00 0.00 0.00 0.00 0.00 0.00 0.00
0.00 0.00 0.00 0.00 0.00 0.00 0.00 0.00 0.00 0.00 0.00 0.00 0.00 0.00 0.00 0.00 0.00 0.00 0.00 0.00 0.00 0.00 0.00 0.00 0.00 0.00 0.00 0.00 0.00 0.00 0.00 0.00 0.00 0.00 0.00 0.00 0.00 0.00 0.00 0.00 0.00 0.00 0.00
0.00 0.00 0.00 0.00 0.00 0.00 0.01 0.00 0.00 0.00 0.00 0.00 0.00 0.00 0.00 0.00 0.00 0.00 0.00 0.00 0.00 0.00 0.00 0.00 0.00 0.00 0.00 0.00 0.00 0.00 0.00 0.00 0.00 0.00 0.00 0.00 0.00 0.00 0.00 0.00 0.00 0.00 0.00
0.00 0.01 0.00 0.00 0.00 0.00 0.00 0.00 0.00 0.00 0.00 0.00 0.00 0.00 0.00 0.00 0.00 0.00 0.00 0.00 0.00 0.00 0.00 0.00 0.00 0.00 0.00 0.00 0.00 0.00 0.00 0.00 0.00 0.00 0.00 0.00 0.00 0.00 0.00 0.00 0.00 0.00 0.00
0.01 0.01 0.00 0.00 0.00 0.00 0.00 0.00 0.00 0.00 0.00 0.00 0.00 0.00 0.00 0.00 0.00 0.00 0.00 0.00 0.00 0.00 0.00 0.00 0.00 0.00 0.00 0.00 0.00 0.00 0.00 0.00 0.00 0.00 0.00 0.00 0.00 0.00 0.00 0.00 0.00 0.00 0.00
0.01 0.00 0.00 0.00 0.00 0.00 0.00 0.00 0.00 0.00 0.00 0.00 0.00 0.00 0.00 0.00 0.00 0.00 0.00 0.00 0.00 0.00 0.00 0.00 0.00 0.00 0.00 0.00 0.00 0.00 0.00 0.00 0.00 0.00 0.00 0.00 0.00 0.00 0.00 0.00 0.00 0.00 0.00
0.01 0.00 0.00 0.00 0.00 0.00 0.00 0.00 0.00 0.00 0.00 0.00 0.00 0.00 0.00 0.00 0.00 0.00 0.00 0.00 0.00 0.00 0.00 0.00 0.00 0.00 0.00 0.00 0.00 0.00 0.00 0.00 0.00 0.00 0.00 0.00 0.00 0.00 0.00 0.00 0.00 0.00 0.00
0.00 0.00 0.00 0.00 0.00 0.00 0.00 0.00 0.00 0.00 0.00 0.00 0.00 0.00 0.00 0.00 0.00 0.00 0.00 0.00 0.00 0.00 0.00 0.00 0.00 0.00 0.00 0.00 0.00 0.00 0.00 0.00 0.00 0.00 0.00 0.00 0.00 0.00 0.00 0.00 0.00 0.00 0.00
0.00 0.00 0.00 0.00 0.00 0.00 0.00 0.00 0.00 0.00 0.00 0.00 0.00 0.00 0.00 0.00 0.00 0.00 0.00 0.00 0.00 0.00 0.00 0.00 0.00 0.00 0.00 0.00 0.00 0.00 0.00 0.00 0.00 0.00 0.00 0.00 0.00 0.00 0.00 0.00 0.00 0.00 0.00
0.00 0.00 0.00 0.00 0.00 0.00 0.00 0.00 0.00 0.00 0.00 0.00 0.00 0.00 0.00 0.00 0.00 0.00 0.00 0.00 0.00 0.00 0.00 0.00 0.00 0.00 0.00 0.00 0.00 0.00 0.00 0.00 0.00 0.00 0.00 0.00 0.00 0.00 0.00 0.00 0.00 0.00 0.00
MSLP
1009.29 1009.88 1010.56 1011.41 1012.18 1012.99 1013.68 1013.51 1013.62 1014.95 1015.23 1015.55 1015.81 1016.32 1016.57 1016.86 1017.09 1017.46 1017.73 1017.86 1017.95 1017.83 1018.03 1017.92 1017.94 1017.98 1017.85 1017.91 1017.95 1018.03 1018.17 1018.30 1017.79 1016.66 1016.65 1017.06 1017.09 1016.78 1016.53 1016.43 1016.22 1015.87 1015.36
1007.88 1009.00 1009.72 1010.49 1011.03 1011.36 1011.67 1013.71 1014.57 1014.10 1015.26 1015.23 1015.37 1015.80 1016.16 1016.30 1016.54 1016.99 1017.20 1017.33 1017.44 1017.50 1017.47 1017.38 1017.43 1017.43 1017.56 1017.59 1017.44 1017.48 1017.44 1017.40 1017.54 1016.90 1016.31 1016.19 1016.05 1015.98 1015.96 1015.74 1015.52 1015.11 1014.73
1007.27 1008.14 1008.93 1009.57 1010.21 1010.53 1011.37 1011.94 1013.04 1013.29 1015.12 1015.56 1015.74 1015.65 1015.79 1016.17 1016.26 1016.35 1016.59 1016.69 1016.66 1016.93 1016.92 1016.90 1016.74 1017.07 1017.03 1016.78 1017.10 1017.04 1016.88 1017.09 1016.95 1017.01 1016.25 1015.79 1015.36 1015.15 1014.90 1014.73 1014.65 1014.36 1014.01
1006.34 1007.15 1007.89 1008.41 1008.65 1009.50 1010.75 1011.48 1012.94 1013.53 1014.18 1015.20 1015.28 1015.38 1015.74 1015.92 1015.85 1016.00 1016.18 1016.37 1016.10 1016.04 1016.36 1016.16 1016.27 1016.29 1016.36 1016.54 1016.56 1016.70 1016.63 1016.47 1016.30 1016.21 1015.64 1015.05 1014.72 1014.34 1014.30 1013.99 1013.34 1013.12 1012.75
1005.66 1006.35 1006.82 1007.51 1008.66 1009.51 1010.89 1012.33 1013.17 1014.10 1016.52 1016.26 1015.71 1015.54 1015.27 1015.35 1015.14 1015.61 1015.86 1015.65 1015.60 1015.53 1015.35 1015.45 1015.64 1015.89 1016.11 1016.12 1016.16 1016.03 1016.14 1015.97 1015.65 1015.31 1014.88 1014.26 1013.85 1013.60 1013.56 1013.27 1012.75 1012.31 1011.96
1005.20 1005.76 1006.66 1007.43 1008.29 1009.18 1010.62 1011.48 1011.87 1013.35 1013.08 1015.10 1016.00 1015.29 1015.42 1015.06 1014.73 1015.11 1015.17 1015.13 1014.98 1015.17 1015.05 1014.80 1015.24 1015.67 1015.75 1015.86 1015.91 1015.92 1016.00 1015.74 1015.58 1015.32 1014.67 1014.19 1014.11 1013.78 1013.45 1013.05 1012.53 1011.89 1010.98
1004.86 1005.33 1006.11 1006.82 1007.62 1008.46 1009.55 1010.63 1011.31 1011.97 1012.22 1012.61 1014.01 1013.97 1013.97 1014.42 1014.29 1014.67 1014.61 1014.71 1014.68 1014.27 1014.39 1014.66 1014.72 1014.97 1015.44 1015.35 1015.38 1015.47 1015.54 1015.52 1015.60 1015.32 1015.04 1014.56 1014.18 1013.67 1013.61 1013.10 1012.57 1012.29 1011.54
1004.36 1004.96 1005.74 1006.46 1007.29 1008.03 1008.69 1009.38 1010.26 1011.23 1010.73 1011.69 1012.04 1012.29 1012.77 1013.47 1014.02 1014.16 1014.61 1014.70 1014.51 1014.16 1014.11 1014.39 1014.64 1014.82 1014.93 1015.22 1015.13 1014.88 1014.62 1014.77 1014.91 1014.84 1014.60 1014.42 1014.27 1013.84 1013.51 1013.10 1012.66 1012.03 1011.19
1003.92 1004.51 1005.11 1005.79 1006.44 1007.20 1007.72 1008.65 1009.58 1010.32 1010.80 1011.08 1011.68 1012.42 1012.71 1013.03 1013.21 1013.48 1013.84 1014.09 1014.40 1014.39 1013.95 1014.13 1014.37 1014.46 1014.70 1015.13 1014.96 1014.68 1014.40 1014.28 1014.32 1014.67 1014.56 1014.34 1014.05 1013.57 1013.26 1012.75 1011.82 1011.00 1009.82
1003.25 1003.97 1004.67 1005.52 1006.21 1007.02 1007.97 1008.34 1009.32 1010.07 1011.07 1011.15 1011.54 1011.95 1012.03 1011.89 1012.18 1012.60 1012.27 1012.34 1013.02 1013.76 1013.73 1013.97 1014.25 1014.45 1014.59 1014.77 1014.77 1014.30 1014.12 1013.92 1014.23 1013.86 1013.44 1013.15 1012.72 1012.12 1012.01 1011.71 1011.03 1010.26 1009.40
1003.17 1003.61 1003.97 1004.73 1005.34 1005.83 1007.18 1008.00 1008.81 1009.70 1010.33 1011.14 1010.83 1011.17 1012.03 1011.73 1012.23 1012.31 1012.52 1012.37 1012.64 1013.02 1013.10 1013.15 1013.76 1014.26 1014.39 1014.70 1014.70 1014.25 1014.23 1014.56 1014.29 1013.78 1012.94 1012.22 1011.76 1011.35 1010.73 1010.46 1010.20 1009.66 1008.94
1002.80 1003.95 1004.13 1004.73 1005.31 1005.93 1006.77 1007.63 1008.24 1009.28 1009.59 1009.56 1010.56 1011.34 1011.41 1011.24 1011.81 1012.02 1012.17 1012.16 1012.27 1012.84 1012.78 1012.63 1013.44 1014.17 1014.39 1014.51 1014.63 1014.45 1014.75 1014.70 1013.78 1013.19 1012.49 1011.79 1011.33 1010.85 1010.32 1010.04 1009.53 1008.83 1008.13
1002.93 1003.88 1004.01 1004.82 1005.43 1005.75 1006.47 1007.36 1008.34 1009.43 1009.27 1009.34 1010.14 1009.80 1010.43 1010.28 1011.23 1011.93 1011.91 1011.91 1012.43 1012.99 1013.01 1013.28 1013.62 1013.98 1014.06 1014.06 1014.42 1014.52 1014.55 1013.85 1013.26 1012.77 1012.13 1011.72 1011.40 1010.95 1010.31 1009.45 1008.63 1007.90 1007.13
1003.21 1004.42 1004.85 1005.13 1005.33 1005.94 1006.30 1007.14 1007.90 1008.76 1009.13 1009.48 1009.55 1010.04 1009.97 1009.70 1010.53 1011.38 1011.77 1012.40 1012.98 1013.38 1013.25 1013.02 1013.53 1013.70 1013.66 1013.68 1014.31 1014.19 1013.97 1013.68 1013.33 1012.65 1012.13 1011.68 1011.25 1010.44 1009.51 1009.09 1008.31 1007.43 1006.73
1003.69 1004.49 1004.87 1005.15 1005.36 1006.04 1007.00 1007.81 1008.26 1008.23 1009.14 1009.28 1009.12 1009.41 1009.17 1009.47 1010.47 1011.24 1011.74 1012.18 1012.22 1012.48 1012.59 1012.48 1012.68 1012.87 1013.10 1013.41 1013.73 1013.71 1013.53 1013.33 1012.93 1012.50 1012.01 1011.37 1010.82 1010.08 1009.32 1008.90 1008.14 1007.42 1006.70
1004.38 1004.84 1005.04 1005.25 1005.81 1006.22 1007.51 1008.50 1009.34 1009.41 1009.44 1009.60 1009.72 1009.33 1009.67 1009.96 1010.83 1011.38 1012.00 1012.21 1012.35 1012.70 1012.71 1012.24 1012.24 1012.52 1012.73 1012.85 1012.87 1012.94 1013.04 1013.13 1012.80 1012.64 1011.99 1011.31 1010.74 1010.06 1009.36 1008.72 1007.97 1007.31 1006.50
1004.72 1005.19 1004.99 1005.32 1005.74 1006.59 1007.46 1007.80 1008.63 1010.11 1009.88 1010.02 1009.95 1009.70 1009.52 1010.43 1011.20 1011.74 1012.07 1012.46 1012.83 1013.23 1012.58 1012.21 1012.21 1012.59 1012.54 1012.70 1012.87 1012.74 1012.61 1012.84 1013.09 1012.43 1011.98 1011.37 1010.81 1010.09 1009.48 1008.77 1008.22 1007.64 1006.74
1004.63 1005.10 1005.28 1005.51 1005.97 1006.93 1007.62 1007.85 1008.01 1008.24 1008.72 1009.57 1010.34 1010.15 1010.65 1011.15 1011.63 1011.97 1012.20 1012.38 1012.65 1012.54 1012.20 1012.04 1012.23 1012.67 1012.62 1012.73 1012.78 1012.74 1012.65 1012.67 1012.51 1012.36 1011.83 1011.35 1010.75 1010.13 1009.42 1008.83 1008.27 1008.01 1007.15
1004.54 1004.99 1005.27 1005.45 1005.83 1006.39 1006.93 1007.19 1007.44 1008.12 1008.07 1008.72 1009.80 1010.58 1011.25 1011.58 1011.84 1011.95 1012.12 1011.69 1011.64 1011.86 1012.01 1012.12 1012.27 1012.50 1012.65 1012.84 1012.87 1012.87 1013.03 1012.67 1012.81 1012.36 1011.77 1011.31 1010.76 1010.16 1009.50 1008.96 1008.22 1007.69 1007.24
1004.56 1005.06 1005.32 1005.51 1006.10 1006.39 1006.77 1007.06 1007.33 1007.54 1007.94 1008.44 1009.06 1009.59 1010.51 1011.27 1011.22 1011.29 1011.12 1011.31 1011.51 1011.74 1012.00 1012.13 1012.40 1012.65 1012.79 1012.92 1012.99 1013.02 1012.78 1012.62 1012.42 1012.13 1011.87 1011.44 1010.89 1010.27 1009.61 1008.98 1008.25 1007.60 1006.93
1004.94 1005.25 1005.62 1005.58 1005.91 1005.88 1006.27 1006.62 1007.08 1007.39 1007.48 1007.94 1008.54 1009.14 1009.79 1010.17 1010.18 1010.33 1010.65 1011.22 1011.49 1011.73 1012.10 1012.25 1012.42 1012.50 1012.86 1013.02 1013.02 1012.91 1012.80 1012.64 1012.54 1012.36 1012.07 1011.60 1011.07 1010.39 1009.73 1009.05 1008.35 1007.75 1007.25
1004.90 1005.06 1005.39 1005.51 1005.90 1006.10 1006.36 1006.81 1006.97 1007.04 1007.20 1007.72 1008.34 1009.66 1010.31 1009.89 1009.83 1010.10 1010.51 1011.03 1011.47 1011.83 1011.97 1012.29 1012.33 1012.51 1012.71 1012.88 1013.05 1012.92 1012.84 1012.78 1012.70 1012.58 1012.29 1011.79 1011.16 1010.61 1009.93 1009.17 1008.59 1008.07 1007.44
1004.89 1005.06 1005.24 1005.61 1005.87 1006.18 1006.34 1006.55 1006.71 1006.89 1007.15 1007.65 1008.16 1008.93 1009.62 1009.54 1009.64 1009.90 1010.32 1010.77 1011.25 1011.59 1011.90 1012.14 1012.39 1012.55 1012.88 1013.15 1013.24 1013.17 1013.07 1013.04 1013.14 1013.09 1012.64 1012.06 1011.33 1010.92 1010.26 1009.44 1008.86 1008.43 1007.98
1004.72 1004.99 1005.39 1005.77 1005.84 1005.84 1006.14 1006.34 1006.49 1006.91 1007.00 1007.50 1007.99 1008.44 1008.85 1009.25 1009.63 1009.93 1010.13 1010.54 1010.97 1011.34 1011.72 1012.06 1012.31 1012.50 1012.89 1013.09 1013.23 1013.32 1013.44 1013.50 1013.50 1013.13 1013.03 1012.31 1011.56 1011.14 1010.57 1009.96 1009.32 1008.98 1008.38
1004.98 1005.35 1005.50 1005.63 1005.85 1006.04 1006.22 1006.16 1006.39 1006.61 1006.96 1007.26 1007.63 1008.25 1008.65 1008.74 1008.74 1009.28 1009.82 1010.22 1010.62 1011.06 1011.51 1011.87 1012.13 1012.51 1012.88 1013.09 1013.12 1013.29 1013.75 1014.22 1014.10 1014.03 1012.94 1012.35 1011.86 1011.38 1010.89 1010.30 1010.08 1009.57 1009.30
1005.30 1005.51 1005.64 1005.83 1006.05 1006.23 1006.23 1006.26 1006.39 1006.50 1006.60 1006.82 1007.00 1007.33 1007.65 1007.96 1008.34 1008.83 1009.37 1009.76 1010.17 1010.63 1011.02 1011.49 1011.93 1012.38 1012.73 1012.95 1013.15 1013.64 1013.99 1014.12 1013.89 1014.02 1013.32 1012.24 1011.85 1011.34 1011.02 1010.76 1010.45 1009.98 1009.81
Thickness
5802 5798 5792 5784 5776 5768 5761 5761 5758 5745 5742 5739 5736 5729 5725 5720 5717 5711 5707 5704 5700 5699 5694 5692 5688 5686 5685 5682 5679 5673 5666 5662 5658 5665 5663 5656 5650 5647 5646 5644 5643 5645 5649
5811 5801 5794 5787 5782 5775 5771 5754 5742 5744 5734 5734 5733 5728 5722 5719 5715 5708 5704 5701 5697 5693 5690 5690 5686 5685 5680 5676 5672 5667 5664 5661 5653 5649 5652 5649 5647 5641 5636 5636 5634 5635 5639
5812 5802 5793 5786 5780 5778 5770 5764 5751 5749 5727 5722 5719 5720 5717 5712 5710 5708 5702 5699 5697 5692 5688 5685 5684 5678 5675 5675 5667 5661 5657 5652 5647 5637 5638 5640 5640 5638 5634 5632 5630 5629 5630
5815 5806 5797 5791 5787 5778 5766 5759 5741 5733 5727 5713 5714 5714 5708 5705 5703 5702 5697 5692 5693 5691 5684 5686 5681 5676 5673 5665 5659 5652 5647 5644 5639 5633 5633 5634 5631 5630 5627 5623 5626 5625 5628
5815 5808 5802 5795 5783 5771 5755 5738 5726 5716 5690 5693 5701 5701 5703 5701 5702 5694 5689 5688 5686 5683 5684 5682 5678 5670 5664 5659 5654 5647 5641 5636 5632 5628 5624 5626 5623 5621 5615 5617 5618 5620 5621
5813 5806 5798 5790 5778 5766 5749 5739 5730 5711 5712 5693 5685 5690 5688 5693 5694 5688 5684 5680 5679 5672 5672 5675 5669 5661 5656 5650 5644 5637 5632 5626 5620 5614 5613 5612 5607 5607 5607 5606 5607 5609 5614
5809 5805 5796 5788 5777 5765 5753 5738 5728 5720 5714 5710 5694 5690 5694 5691 5687 5681 5676 5673 5668 5671 5668 5664 5661 5658 5647 5643 5636 5628 5621 5615 5609 5605 5599 5598 5597 5599 5595 5595 5597 5595 5600
5804 5798 5791 5783 5772 5763 5752 5743 5730 5720 5720 5706 5703 5699 5695 5688 5678 5674 5665 5660 5661 5663 5661 5657 5652 5646 5641 5632 5627 5623 5618 5610 5603 5599 5596 5592 5589 5590 5588 5586 5586 5588 5593
5798 5792 5787 5780 5771 5760 5752 5738 5729 5719 5711 5706 5698 5686 5683 5680 5677 5671 5663 5659 5654 5652 5653 5647 5642 5639 5631 5619 5618 5613 5607 5602 5595 5589 5585 5582 5580 5580 5578 5578 5582 5585 5591
5795 5789 5783 5774 5765 5753 5741 5732 5722 5712 5697 5689 5685 5679 5677 5679 5674 5667 5668 5663 5655 5647 5646 5639 5631 5627 5619 5612 5608 5606 5601 5595 5585 5582 5583 5582 5579 5580 5578 5574 5576 5577 5578
5788 5784 5779 5771 5761 5755 5737 5726 5715 5704 5691 5677 5673 5679 5667 5668 5666 5660 5658 5656 5649 5642 5640 5635 5626 5615 5610 5602 5595 5596 5591 5579 5576 5575 5578 5579 5578 5577 5579 5576 5572 5567 5564
5779 5768 5764 5759 5750 5740 5729 5717 5709 5697 5691 5684 5674 5665 5664 5667 5656 5651 5645 5644 5641 5633 5630 5629 5618 5604 5597 5592 5586 5582 5573 5567 5572 5571 5571 5571 5571 5572 5575 5573 5570 5568 5564
5769 5755 5750 5741 5736 5729 5720 5709 5695 5683 5684 5678 5667 5666 5662 5663 5655 5642 5637 5633 5626 5620 5618 5610 5601 5593 5589 5584 5577 5571 5565 5568 5568 5566 5567 5566 5565 5566 5568 5571 5572 5570 5568
5754 5738 5731 5726 5723 5717 5713 5704 5692 5680 5675 5669 5664 5652 5651 5653 5647 5638 5632 5623 5612 5606 5602 5600 5589 5582 5578 5576 5566 5564 5563 5561 5559 5561 5561 5562 5560 5564 5567 5567 5568 5569 5566
5735 5726 5721 5717 5711 5704 5695 5689 5683 5677 5668 5666 5661 5657 5653 5647 5639 5629 5622 5614 5610 5601 5594 5592 5586 5580 5574 5568 5562 5559 5558 5556 5556 5556 5556 5558 5558 5560 5562 5562 5563 5563 5560
5715 5712 5710 5705 5696 5692 5678 5670 5655 5652 5648 5644 5640 5644 5639 5632 5621 5613 5603 5596 5590 5583 5586 5584 5579 5573 5568 5565 5562 5559 5554 5550 5549 5548 5549 5552 5553 5555 5557 5557 5560 5560 5560
5701 5695 5696 5691 5686 5675 5665 5662 5657 5637 5631 5627 5627 5628 5628 5617 5605 5596 5590 5582 5575 5569 5576 5574 5569 5562 5561 5557 5553 5552 5551 5545 5539 5543 5543 5545 5546 5549 5551 5553 5554 5554 5553
5690 5681 5681 5676 5670 5658 5650 5647 5646 5642 5638 5628 5611 5613 5603 5595 5589 5583 5577 5571 5571 5566 5568 5564 5559 5551 5550 5547 5546 5544 5542 5540 5538 5537 5538 5539 5542 5544 5547 5548 5550 5546 5549
5678 5671 5666 5663 5658 5650 5643 5639 5635 5628 5627 5619 5607 5595 5585 5579 5575 5570 5565 5570 5568 5563 5558 5553 5549 5544 5541 5537 5536 5534 5531 5532 5528 5530 5533 5534 5536 5538 5542 5543 5547 5546 5546
5665 5654 5652 5650 5640 5636 5631 5626 5622 5619 5614 5609 5602 5596 5583 5575 5575 5571 5567 5563 5558 5552 5547 5543 5539 5534 5531 5528 5526 5524 5525 5525 5525 5526 5525 5527 5529 5532 5536 5539 5543 5546 5548
5648 5643 5635 5636 5631 5629 5624 5619 5614 5610 5608 5602 5596 5588 5578 5576 5574 5570 5563 5553 5547 5543 5537 5534 5530 5528 5523 5520 5518 5518 5518 5518 5518 5518 5518 5520 5523 5526 5530 5534 5538 5542 5543
5635 5632 5628 5625 5620 5616 5612 5607 5606 5603 5600 5593 5587 5574 5561 5568 5568 5561 5552 5545 5539 5533 5530 5526 5524 5521 5518 5515 5513 5513 5512 5511 5510 5510 5510 5513 5516 5519 5523 5530 5532 5535 5539
5624 5621 5618 5613 5610 5604 5603 5600 5597 5594 5590 5584 5579 5572 5564 5564 5558 5551 5544 5539 5532 5528 5523 5520 5517 5515 5510 5506 5504 5503 5503 5502 5499 5497 5500 5503 5508 5510 5514 5521 5526 5528 5531
5615 5611 5606 5601 5600 5600 5596 5593 5591 5583 5583 5577 5573 5568 5562 5555 5547 5543 5539 5534 5528 5523 5517 5513 5510 5508 5502 5499 5497 5495 5493 5490 5488 5489 5488 5493 5499 5500 5504 5509 5516 5519 5524
5603 5598 5596 5593 5590 5588 5587 5587 5584 5581 5576 5573 5568 5559 5553 5552 5550 5543 5536 5530 5524 5518 5512 5507 5504 5499 5495 5492 5491 5489 5485 5481 5479 5478 5482 5486 5489 5492 5495 5500 5501 5507 5509
5591 5588 5586 5584 5581 5579 5579 5578 5576 5574 5572 5570 5567 5562 5556 5551 5546 5540 5533 5528 5521 5515 5510 5504 5498 5493 5489 5487 5484 5481 5478 5477 5475 5474 5475 5480 5483 5487 5489 5490 5493 5499 5499